Other Surface Observations
Issued by NWS

Home | Current Version | Previous Version | Text Only | Print | Product List | Glossary On
Versions: 1 2 3 4 5 6 7 8 9 10 11 12 13 14 15 16 17 18 19 20 21 22 23 24 25 26 27 28 29 30 31 32 33 34 35 36 37 38 39 40 41 42 43 44 45 46 47 48 49 50
000
SXUS52 KTAE 041318
OSOTAE
OSOTAE
North Florida/South Alabama/Southwest Georgia Weather Roundup
National Weather Service Tallahassee Florida
900 AM EDT MON MAY 04 2015

Note: "fair" indicates few or no clouds below 12,000 feet with no
significant weather and/or obstructions to visibility.

!FLZ017-115-028-034-025-041400
...North Florida...

CITY           SKY/WX    TMP DP  RH WIND       PRES   REMARKS
TALLAHASSEE    SUNNY     69  55  60 E7        30.24R
APALACHICOLA   SUNNY     78  63  59 SE9       30.21R
PERRY          SUNNY     68  59  72 E5        30.25R
CROSS CITY       N/A     67  57  70 E5        30.24R
JACKSONVILLE   MOSUNNY   70  62  76 NE8       30.26R
$$

!FLZ112-006-005-002-011-041400
...Florida Panhandle...

CITY           SKY/WX    TMP DP  RH WIND       PRES   REMARKS
MARIANNA       SUNNY     67  61  81 VRB5      30.24R
BONIFAY        NOT AVBL
PANAMA CITY NW FAIR      67  61  81 E5        30.22R
TYNDALL AFB    SUNNY     71  64  77 E7        30.22R
TYND DRONE APT FAIR      70  65  84 E8        30.21R
DE FUNIAK SPR  FAIR      66  62  85 E5        30.25R
EGLIN AFB      SUNNY     69  61  76 E10       30.22R
DESTIN         SUNNY     72  64  76 E8        30.21R
HURLBURT       SUNNY     70  62  76 NE6       30.21R
CRESTVIEW      SUNNY     64  63  96 NE6       30.25R
PENSACOLA      SUNNY     69  63  81 E9        30.21R
$$

!ALZ063-066-041400
...South Alabama...

CITY           SKY/WX    TMP DP  RH WIND       PRES   REMARKS
DOTHAN         SUNNY     67  59  75 E3        30.29R
OZARK CAIRNS   MOSUNNY   65  60  82 NE6       30.25R HAZE
FT RUCKER HELI MOSUNNY   68  61  78 CALM      30.25R
RUCKER HELI 3  FAIR      68  61  79 E2        30.27R
RUCKER HELI 2  FAIR      66  61  84 E3        30.26R
FLORALA APT    SUNNY     65  62  90 E3        30.26R
ANDALUSIA      SUNNY     69  61  75 E5        30.25R
TROY           SUNNY     65  61  87 NE3       30.28R
EUFALA         PTSUNNY   67  60  78 CALM      30.27R
MOBILE         MOSUNNY   68  64  87 E8        30.21R
$$

!GAZ120>161-041400
...Southwest and South Central Georgia...

CITY           SKY/WX    TMP DP  RH WIND       PRES   REMARKS
THOMASVILLE    FAIR      64  59  82 CALM      30.27R
BAINBRIDGE     SUNNY     68  59  73 SE5       30.26R
MOODY AFB      SUNNY     67  57  70 E2        30.26R
VALDOSTA       SUNNY     67  59  75 VRB3      30.26R
MOULTRIE       SUNNY     64  57  77 CALM      30.28R
BLAKELY        MOSUNNY   68  59  73 E3        30.28R
ALBANY         CLOUDY    66  58  75 CALM      30.30R
TIFTON         FAIR      66  56  69 CALM      30.28R
FITZGERALD     FAIR      68  56  66 CALM      30.32R
CORDELE        FAIR      68  56  65 CALM      30.30R
AMERICUS       CLOUDY    64  55  72 W3        30.30R
HOMERVILLE     FAIR      70  61  73 E3        30.28R
$$

!GMZ750-755-770-775-041400
...Coastal and Buoy Obs...

STATION/POSITION TIME  TEMP    WIND        PRES    VSBY  WAVE
                       AIR SEA DIR/SP/G                  HT/PER
                 (UTC) (F)     (DEG/KT/KT) (MB)    (MI)  (FT/S)
KEATON BEACH     1300   67      70/  7/  9 1024.0R
CEDAR KEY        1300   68      80/ 10/ 11 1023.8R
C TOWER          1300   73     130/ 15/ 16 1022.5R
APALACHICOLA BUO 1250   75 74  120/ 16/ 17 1022.0R         6/ 6
PANAMA CITY BUOY 1250   74 75  120/ 19/ 23 1021.3R         5/ 5
MOBILE BUOY      1250   74 74  120/ 17/ 21 1021.0R         4/ 7
ORANGE BCH AL BU 1250   74 74  100/ 16/ 17 1021.2R         4/ 7
$$



USA.gov is the U.S. government's official web portal to all federal, state and local government web resources and services.